Погода в Богуславке

Россия / Приморский край     44°29′07″N   131°34′35″E
темп.,
°C
ветер,
м/с
пор.,
м/с
влажн.,
%
обл.,
%
осадки,
мм/ч
давл.,
гПа
погр.,
м
15 мая, сб
сб1501:00+14ююв41162100 0.0 1008415
04:00+13ю41176100 0.0 1007348
07:00+12ю41182100 0.0 1007342
10:00+20ююз6116041 0.0 10061011
13:00+21ю4858100 0.0 1004356
16:00+16сз3885100 1.2 1006586
19:00+12зсз4976100 2.3 1008675
22:00+10ююз2486100 3.1 1011165
16 мая, вс
вс1601:00+9з238493 0.0 101098
04:00+7з228323 0.0 100934
07:00+8з24755 0.0 100996
10:00+18сз35359 0.0 10081153
13:00+21с232630 0.0 10062514
16:00+22ссз3425100 0.0 10052907
19:00+19юв114692 0.0 100567
22:00+13з22625 0.0 100711
17 мая, пн
пн1701:00+11з225891 0.0 100731
04:00+10з33570 0.0 100642
07:00+11зюз265512 0.0 1007118
10:00+21з48275 0.0 10061013
13:00+24з462393 0.0 10052130
16:00+24з4524100 0.0 10042156
19:00+21юз1145100 0.0 100419
22:00+16зюз1155100 0.0 100512
18 мая, вт
вт1801:00+15з1155100 0.0 100411
04:00+14юз2257100 0.0 100421
07:00+13ююз2360100 0.0 100462
10:00+20ююз463594 0.0 1004810
13:00+24ю5729100 0.0 10022137
16:00+23ююв673687 0.0 1000924
19:00+17ююв49590 0.0 1001439
22:00+11ю25770 0.0 1003147
19 мая, ср
ср1901:00+10ю248232 0.0 1003101
04:00+10ю238279 0.0 100385
07:00+12ююз128416 0.3 100591
10:00+22ссв24478 0.3 1006937
13:00+24вюв534533 0.0 10061398
16:00+24в545055 0.0 1006914
19:00+16ю3491100 3.4 1007133
22:00+14зюз229692 5.5 100926